This is the latest recevied weather packets stored in our database for station/object NE8U. If no packets are shown the sender has not sent any weather packets the latest 10 day(s).
| Time | Temp. | Humidity | Pressure | Rain* | Wind** | Luminosity | Snow |
|---|---|---|---|---|---|---|---|
| 1777315230 | 24.44° C | 21% | 1015.2 hPa | 0 mm | - | 802 W/m² | - |
| 1777314927 | 23.89° C | 22% | 1015.1 hPa | 0 mm | - | 797 W/m² | - |
| 1777314623 | 23.89° C | 23% | 1015.3 hPa | 0 mm | - | 767 W/m² | - |
| 1777314320 | 22.78° C | 22% | 1015.5 hPa | 0 mm | - | 761 W/m² | - |
| 1777314017 | 23.33° C | 23% | 1015.4 hPa | 0 mm | - | 754 W/m² | - |
| 1777313715 | 23.89° C | 23% | 1015.5 hPa | 0 mm | - | 748 W/m² | - |
| 1777313412 | 23.89° C | 23% | 1015.6 hPa | 0 mm | - | 747 W/m² | - |
| 1777313109 | 23.89° C | 23% | 1015.5 hPa | 0 mm | - | 773 W/m² | - |
| 1777312805 | 23.33° C | 24% | 1015.6 hPa | 0 mm | - | 781 W/m² | - |
| 1777312501 | 23.89° C | 23% | 1015.5 hPa | 0 mm | - | 744 W/m² | - |
| 1777312198 | 23.33° C | 25% | 1015.5 hPa | 0 mm | - | 719 W/m² | - |
| 1777311896 | 23.33° C | 23% | 1015.4 hPa | 0 mm | - | 730 W/m² | - |
| 1777311592 | 22.22° C | 26% | 1015.7 hPa | 0 mm | - | 794 W/m² | - |
| 1777311290 | 23.33° C | 25% | 1015.7 hPa | 0 mm | - | 812 W/m² | - |
| 1777310988 | 23.33° C | 25% | 1015.6 hPa | 0 mm | - | 830 W/m² | - |
| 1777310685 | 22.22° C | 26% | 1015.6 hPa | 0 mm | - | 822 W/m² | - |
| 1777310382 | 22.22° C | 26% | 1015.6 hPa | 0 mm | - | 824 W/m² | - |
| 1777310079 | 22.78° C | 26% | 1015.7 hPa | 0 mm | - | 820 W/m² | - |
| 1777309778 | 22.78° C | 27% | 1015.9 hPa | 0 mm | - | 801 W/m² | - |
| 1777309475 | 22.22° C | 27% | 1015.7 hPa | 0 mm | - | 807 W/m² | - |
| 1777309171 | 21.67° C | 28% | 1015.7 hPa | 0 mm | - | 835 W/m² | - |
| 1777308870 | 21.11° C | 28% | 1015.8 hPa | 0 mm | - | 844 W/m² | - |
| 1777308564 | 22.22° C | 29% | 1015.7 hPa | 0 mm | - | 867 W/m² | - |
| 1777308261 | 22.22° C | 29% | 1015.9 hPa | 0 mm | - | 862 W/m² | - |
| 1777307956 | 21.67° C | 28% | 1015.7 hPa | 0 mm | - | 854 W/m² | - |
* Rain latest hour (hover to see other rain measurements)
** Current wind speed in m/s (hover to see current wind gust speed)